COSMOS 1288

Satellite information

Favourite Embed

Satellite Type and Status

PAYLOADIN ORBIT

Key statistics

Satellite COSMOS 1288 at a glance.

Uptime

16206

Days in orbit

Revolutions

≈ 12.5

Per day

Orbit

LEO

Low Earth Orbit

Inclination

74.0

Latest

Satellite identification and parameters

Extended collection of information and parameters for COSMOS 1288.

Object identification

Identified? True

Debris? False

Object name: COSMOS 1288

International designator: 1981-074B

Object number (NORAD): 12637

Object ID (CCSDS): 12637

Country: COMMONWEALTH OF INDEPENDENT STATES (CIS)

Current information (Y/N): Y

RCS size: MEDIUM

Orbital parameters

Period: 115.504 minutes

Inclination: 74.0342 deg

SMA: 7856.424 km

Apoapsis: 1492.293 km

Periapsis: 1464.285 km

RAAN: 346.4321 deg

Eccentricy: 0.00178248

Argument of periapsis: 186.0962 deg

Mean anomaly: 202.0863 deg

Mean motion: 12.46709918 rev/day

Mean motion (dot): -0.0000001 rev/day2

B* drag term: 0.000037837673 1/REarth

Two-line elements (TLE)

Creation date: Dec. 19, 2025, 2:08 a.m.

Reference frame: TEME

Reference center: EARTH

Epoch: Dec. 18, 2025, 11:20 p.m. UTC

TLE line 0: 0 COSMOS 1288

TLE line 1: 1 12637U 81074B 25352.97250892 -.00000010 00000-0 37838-4 0 9993

TLE line 2: 2 12637 74.0342 346.4321 0017825 186.0962 202.0863 12.46709918 19197

Live tracking on map

Real-time ground track for satellite COSMOS 1288.

In-orbit conjunctions

A list of the most updated potential collisions computed for object COSMOS 1288.

Target Orbit TCA Probability of collision Miss distance Type
COSMOS 1924 LEO 2025-07-18 10:50:21 0.0001049104 309.0 (m) PAYLOAD
DELTA 1 DEB SSO 2025-06-06 20:25:39 0.0002198036 465.0 (m) DEBRIS

Associated space launch

Military communications satellites

COSMOS 1288 was lifted into orbit during the mission ‘Kosmos-3M | Strela-1M 217-224’, on board a Kosmos-3M space rocket.

The launch took place on Aug. 6, 1981, 11:49 a.m. from 132/2.

For more information about the launch, click the button.

Launch to space Kosmos-3M | Strela-1M 217-224
Kosmos-3M | Strela-1M 217-224

Agency: N/A

Status: Launch Successful

Launch date: Aug. 6, 1981, 11:49 a.m. UTC

Rocket: Kosmos-3M

Launch pad: 132/2

Location: Plesetsk Cosmodrome, Russian Federation

...

Latest news about this satellite

There are no fresh news available about this satellite. Check back as we update our databases every day.


Newsletter sign-up

Weekly statistics, charts and insights to help you stay on top of the space industry.